Weather History for Brno, Czech Republic

Change the Weather History Date:

Monday, November 25, 2013

  Actual Average Record
Temperature  
Mean Temperature 34 °F -  
Max Temperature 36 °F 36 °F - ()
Min Temperature 31 °F 28 °F - ()
Degree Days  
Heating Degree Days 32    
Moisture  
Dew Point 23 °F    
Average Humidity 62    
Maximum Humidity 75    
Minimum Humidity 45    
Precipitation  
Precipitation 0.00 in 0.04 in - ()
Sea Level Pressure  
Sea Level Pressure 30.05 in    
Wind  
Wind Speed 16 mph ()    
Max Wind Speed 25 mph    
Max Gust Speed 37 mph    
Visibility 6.7 miles    
Events Snow    
T = Trace of Precipitation, MM = Missing Value Source: Averaged Metar Reports

Daily Weather History Graph

Daily Weather History Graph

Search for Another Location

Airport:

Trip Planner

Search our weather history database for the weather conditions in past years. The results will help you decide how hot, cold, wet, or windy it might be!

Date:

Astronomy

Nov. 25, 2013 Rise Set
Actual Time 7:18 AM CET 4:01 PM CET
Civil Twilight 6:42 AM CET 4:37 PM CET
Nautical Twilight 6:02 AM CET 5:17 PM CET
Astronomical Twilight 5:24 AM CET 5:55 PM CET
Moon 11:30 PM CET (11/25) 12:07 PM CET (11/25)
Length of Visible Light 9h 55m
Length of Day
8h 43m
Waning Gibbous, 53% of the Moon is Illuminated
Nov 25
Waning Gibbous
Nov 25
Last Quarter
Dec 3
New
Dec 9
First Quarter
Dec 17
Full

Hourly Weather History & Observations

Time (CET) Temp. Windchill Dew Point Humidity Pressure Visibility Wind Dir Wind Speed Gust Speed Precip Events Conditions
12:00 AM 39.2 °F 30.8 °F 30.2 °F 70% 29.89 in 6.2 mi NNW 15.0 mph - N/A   Mostly Cloudy
12:30 AM 37.4 °F 28.5 °F 28.4 °F 70% 29.89 in 6.2 mi NNW 15.0 mph 26.5 mph N/A   Mostly Cloudy
1:00 AM 36 °F - 26 °F 56% 29.96 in 19 mi NW 20.1 mph - -   Mostly Cloudy
1:00 AM 37.4 °F 28.5 °F 28.4 °F 70% 29.92 in 6.2 mi NNW 15.0 mph - N/A   Mostly Cloudy
1:30 AM 35.6 °F 24.8 °F 24.8 °F 65% 29.92 in 6.2 mi NNW 19.6 mph - N/A   Mostly Cloudy
2:00 AM 35.6 °F 24.5 °F 23.0 °F 60% 29.92 in 6.2 mi NW 20.7 mph - N/A   Scattered Clouds
2:30 AM 33.8 °F 22.2 °F 21.2 °F 60% 29.95 in 6.2 mi NNW 20.7 mph - N/A   Scattered Clouds
3:00 AM 33.8 °F 21.9 °F 19.4 °F 56% 29.95 in 6.2 mi NNW 21.9 mph - N/A   Partly Cloudy
3:30 AM 33.8 °F 21.3 °F 19.4 °F 56% 29.95 in 6.2 mi NNW 24.2 mph - N/A   Partly Cloudy
4:00 AM 33.8 °F 22.2 °F 21.2 °F 60% 29.95 in 6.2 mi NNW 20.7 mph - N/A   Partly Cloudy
4:30 AM 32.0 °F 19.8 °F 21.2 °F 64% 29.98 in 6.2 mi NNW 20.7 mph - N/A   Partly Cloudy
5:00 AM 32.0 °F 19.5 °F 19.4 °F 60% 29.98 in 6.2 mi NNW 21.9 mph - N/A   Partly Cloudy
5:30 AM 32.0 °F 18.6 °F 21.2 °F 64% 29.95 in 6.2 mi NNW 25.3 mph - N/A   Scattered Clouds
6:00 AM 33.8 °F 22.2 °F 19.4 °F 56% 29.98 in 6.2 mi NW 20.7 mph - N/A   Scattered Clouds
6:30 AM 33.8 °F 21.6 °F 19.4 °F 56% 29.98 in 6.2 mi NW 23.0 mph - N/A   Partly Cloudy
7:00 AM 33 °F - 20 °F 45% 30.04 in 25 mi NNW 20.1 mph - -   Scattered Clouds
7:00 AM 33.8 °F 21.3 °F 21.2 °F 60% 29.98 in 6.2 mi NNW 24.2 mph 35.7 mph N/A   Partly Cloudy
7:30 AM 33.8 °F 21.9 °F 21.2 °F 60% 29.98 in 6.2 mi NW 21.9 mph - N/A   Partly Cloudy
7:35 AM 33.8 °F 22.2 °F 21.2 °F 60% 29.98 in 6.2 mi NNW 20.7 mph 33.4 mph N/A   Partly Cloudy
8:00 AM 33.8 °F 22.2 °F 21.2 °F 60% 30.01 in 6.2 mi NNW 20.7 mph 36.8 mph N/A   Scattered Clouds
8:30 AM 33.8 °F 21.9 °F 21.2 °F 60% 30.01 in 6.2 mi NNW 21.9 mph - N/A   Mostly Cloudy
9:00 AM 33.8 °F 22.8 °F 21.2 °F 60% 30.01 in 6.2 mi NNW 18.4 mph - N/A   Scattered Clouds
9:30 AM 33.8 °F 22.2 °F 21.2 °F 60% 30.04 in 6.2 mi NNW 20.7 mph - N/A   Scattered Clouds
9:38 AM 33.8 °F 23.2 °F 21.2 °F 60% 30.04 in 6.2 mi NNW 17.3 mph 29.9 mph N/A   Mostly Cloudy
10:00 AM 33.8 °F 23.2 °F 21.2 °F 60% 30.04 in 6.2 mi NNW 17.3 mph - N/A   Mostly Cloudy
10:06 AM 35.6 °F 24.8 °F 23.0 °F 60% 30.06 in 6.2 mi NNW 19.6 mph 33.4 mph N/A Snow Light Snow
10:30 AM 33.8 °F 23.2 °F 23.0 °F 65% 30.06 in 6.2 mi NNW 17.3 mph 28.8 mph N/A Snow Light Snow
11:00 AM 35.6 °F 25.5 °F 23.0 °F 60% 30.06 in 6.2 mi NNW 17.3 mph - N/A Snow Light Snow
11:12 AM 35.6 °F 24.5 °F 23.0 °F 60% 30.06 in 6.2 mi NNW 20.7 mph 32.2 mph N/A Snow Light Snow
11:30 AM 35.6 °F 24.8 °F 23.0 °F 60% 30.06 in 6.2 mi NNW 19.6 mph - N/A Snow Light Snow
12:00 PM 35.6 °F 24.8 °F 23.0 °F 60% 30.06 in 6.2 mi NNW 19.6 mph - N/A Snow Light Snow
12:30 PM 35.6 °F 25.5 °F 23.0 °F 60% 30.06 in 6.2 mi NNW 17.3 mph - N/A Snow Light Snow
12:33 PM 35.6 °F 24.8 °F 23.0 °F 60% 30.06 in 6.2 mi NNW 19.6 mph 32.2 mph N/A Snow Light Snow
1:00 PM 35 °F - 22 °F 47% 30.12 in 25 mi NNW 17.9 mph - - Snow Light Snow
1:00 PM 35.6 °F 25.5 °F 24.8 °F 65% 30.06 in 6.2 mi NNW 17.3 mph - N/A Snow Light Snow
1:30 PM 35.6 °F 25.2 °F 23.0 °F 60% 30.06 in 6.2 mi NNW 18.4 mph - N/A Snow Light Snow
2:00 PM 35.6 °F 24.5 °F 23.0 °F 60% 30.06 in 6.2 mi NNW 20.7 mph - N/A Snow Light Snow
2:30 PM 35.6 °F 25.5 °F 23.0 °F 60% 30.06 in 6.2 mi NNW 17.3 mph - N/A Snow Light Snow
3:00 PM 35.6 °F 24.8 °F 21.2 °F 56% 30.09 in 6.2 mi NNW 19.6 mph - N/A   Partly Cloudy
3:07 PM 35.6 °F 25.9 °F 23.0 °F 60% 30.09 in 6.2 mi NNW 16.1 mph 28.8 mph N/A   Partly Cloudy
3:30 PM 35.6 °F 26.2 °F 21.2 °F 56% 30.09 in 6.2 mi NNW 15.0 mph - N/A   Mostly Cloudy
4:00 PM 35.6 °F 26.6 °F 21.2 °F 56% 30.09 in 6.2 mi NNW 13.8 mph - N/A   Scattered Clouds
4:30 PM 35.6 °F 25.9 °F 21.2 °F 56% 30.09 in 6.2 mi NNW 16.1 mph - N/A   Partly Cloudy
5:00 PM 35.6 °F 27.5 °F 21.2 °F 56% 30.12 in 6.2 mi North 11.5 mph - N/A   Partly Cloudy
5:30 PM 33.8 °F 25.3 °F 23.0 °F 65% 30.12 in - NNW 11.5 mph - N/A   Clear
6:00 PM 35.6 °F 27.1 °F 23.0 °F 60% 30.12 in 6.2 mi NNW 12.7 mph - N/A   Mostly Cloudy
6:30 PM 35.6 °F 29.9 °F 24.8 °F 65% 30.15 in 6.2 mi NW 6.9 mph - N/A   Mostly Cloudy
6:42 PM 33.8 °F 24.8 °F 24.8 °F 70% 30.15 in 6.2 mi NNW 12.7 mph - N/A Snow Light Snow
7:00 PM 34 °F - 24 °F 55% 30.20 in 19 mi NNW 11.2 mph - - Snow Light Snow
7:00 PM 33.8 °F 24.8 °F 24.8 °F 70% 30.15 in 6.2 mi NNW 12.7 mph - N/A Snow Light Snow
7:30 PM 33.8 °F 26.4 °F 24.8 °F 70% 30.15 in 6.2 mi NNW 9.2 mph - N/A Snow Light Snow
8:00 PM 33.8 °F 28.6 °F 26.6 °F 75% 30.15 in 6.2 mi NW 5.8 mph - N/A Snow Light Snow
8:30 PM 33.8 °F 26.4 °F 26.6 °F 75% 30.15 in 6.2 mi NW 9.2 mph - N/A Snow Light Snow
9:00 PM 33.8 °F 26.4 °F 26.6 °F 75% 30.15 in 6.2 mi NW 9.2 mph - N/A Snow Light Snow
9:30 PM 33.8 °F 25.8 °F 26.6 °F 75% 30.18 in 6.2 mi NW 10.4 mph - N/A Snow Light Snow
10:00 PM 33.8 °F 25.8 °F 26.6 °F 75% 30.18 in 6.2 mi NW 10.4 mph - N/A Snow Light Snow
10:30 PM 33.8 °F 25.8 °F 26.6 °F 75% 30.18 in 6.2 mi NW 10.4 mph - N/A Snow Light Snow
11:00 PM 33.8 °F 25.8 °F 24.8 °F 70% 30.18 in 6.2 mi NW 10.4 mph - N/A   Partly Cloudy
11:30 PM 33.8 °F 25.8 °F 24.8 °F 70% 30.18 in 6.2 mi NW 10.4 mph - N/A   Partly Cloudy